#timestamp,LO_Frequency,Hit,StdDev 
1636473615.6,286046998.5,N
1636473635.4,286047000.9,N
1636473655.3,286046998.3,N
1636473675.1,286047000.8,N
1636473676.0,286047000.8,N
1636473695.8,286047000.9,N
1636473715.7,286047003.2,N
1636473735.5,286047004.0,Y
1636473755.3,286046999.8,P
1636473775.2,286046999.7,P
1636473795.0,286047000.2,N
1636473795.9,286047000.2,N
1636473815.8,286047002.3,Y
1636473835.6,286047001.9,P
1636473855.4,286047001.6,N
1636473875.3,286047004.3,P
1636473895.1,286047001.4,N
1636473896.0,286047001.4,N
1636473915.8,286047004.0,Y
1636473935.7,286047000.6,P
1636473955.5,286046998.4,N
1636473975.3,286046999.2,N
1636473995.2,286046996.5,N
1636474015.0,286046997.2,N
1636474015.9,286046997.2,N
1636474035.8,286046995.6,N
1636474055.6,286046996.4,N
1636474075.4,286046994.6,N
1636474095.3,286046994.6,N
1636474115.1,286046995.9,N
1636474116.0,286046995.9,N
1636474135.8,286046993.7,N
1636474155.7,286046993.8,N
1636474175.5,286046994.8,N
1636474195.3,286046991.7,Y
1636474215.2,286046996.3,P
1636474235.0,286046994.1,P
1636474235.9,286046994.1,P
1636474255.8,286046992.8,Y
1636474275.6,286046996.0,P
1636474295.4,286046992.2,P
1636474315.3,286046990.9,P
1636474335.1,286046990.4,Y
1636474336.0,286046990.4,P
1636474355.8,286046995.4,N
1636474375.7,286046993.8,P
1636474395.5,286046994.8,N
1636474415.3,286046993.1,Y
1636474435.2,286046996.8,P
1636474455.0,286046997.6,N
1636474455.9,286046997.6,N
1636474475.8,286046994.9,Y
1636474495.6,286046998.7,P
1636474515.4,286046996.7,N
1636474535.3,286046997.9,N
1636474555.1,286046995.9,Y
1636474575.8,286046997.1,P
1636474595.7,286046995.1,P
1636474615.5,286046994.0,P
1636474635.4,286046994.1,Y
1636474655.2,286046998.9,P
1636474675.0,286046997.9,N
1636474675.9,286046997.9,N
1636474695.8,286046996.1,Y
1636474715.6,286046997.5,P
1636474735.4,286046994.1,P
1636474755.3,286046990.4,P
1636474775.1,286046988.8,Y
1636474795.8,286046992.7,P
1636474815.7,286046990.8,P
1636474835.5,286046987.8,P
1636474855.4,286046986.2,Y
1636474875.2,286046986.3,P
1636474895.0,286046990.3,P
1636474895.9,286046990.3,P
1636474915.8,286046986.9,Y
1636474935.6,286046995.4,P
1636474955.4,286046996.2,N
1636474975.3,286046990.6,P
1636474995.1,286046992.7,N
1636475015.8,286046990.2,Y
1636475035.7,286046997.2,P
1636475055.5,286046995.7,N
1636475075.4,286046992.2,P
1636475095.2,286046990.7,Y
1636475115.0,286046991.7,P
1636475115.9,286046991.7,P
1636475135.8,286046990.3,P
1636475155.6,286046989.0,Y
1636475175.4,286046993.9,P
1636475195.3,286046989.0,P
1636475215.1,286046985.6,P
1636475235.9,286046983.3,Y
1636475255.7,286046989.0,P
1636475275.5,286046987.7,P
1636475295.4,286046986.5,P
1636475315.2,286046986.5,Y
1636475335.0,286046997.5,P
1636475335.9,286046997.5,N
1636475355.8,286046995.1,N
1636475375.6,286046995.8,N
1636475395.4,286046996.0,N
1636475415.3,286046996.4,N
1636475435.1,286046996.4,N
1636475455.9,286046993.6,N
1636475475.7,286046993.9,N
1636475495.5,286046991.7,Y
1636475515.4,286046997.8,P
1636475535.2,286046995.2,P
1636475555.0,286046995.7,P
1636475555.9,286046995.7,Y
1636475575.8,286047001.2,P
1636475595.6,286046998.5,N
1636475615.5,286046998.9,N
1636475635.3,286046998.8,N
1636475655.1,286046998.9,N
1636475675.9,286046999.5,N
1636475695.7,286046997.0,N
1636475715.5,286046997.5,N
1636475735.4,286046997.6,N
1636475755.2,286046997.2,N
1636475775.0,286046997.8,N
1636475775.9,286046997.8,N
1636475795.8,286046997.8,N
1636475815.6,286046997.8,N
1636475835.5,286046996.8,N
1636475855.3,286046997.0,N
1636475875.1,286046997.2,N
1636475895.9,286046997.8,N
1636475915.7,286046996.8,N
1636475935.5,286046999.1,N
1636475955.4,286046999.3,N
1636475975.2,286046999.4,N
1636475995.0,286046999.3,N
1636475996.0,286046999.3,N
1636476015.8,286046996.6,N
1636476035.6,286046997.1,N
1636476055.5,286046996.7,N
1636476075.3,286046997.8,N
1636476095.1,286046995.5,Y
1636476115.9,286046997.0,P
1636476135.7,286046997.0,P
1636476155.5,286046997.3,P
1636476175.4,286046997.8,Y
1636476195.2,286046998.7,P
1636476215.1,286046999.0,N
1636476216.0,286046999.0,N
1636476235.8,286046999.4,N
1636476255.6,286046999.4,N
1636476275.5,286046996.7,Y
1636476295.3,286046998.8,P
1636476315.1,286046998.3,P
1636476335.9,286046998.9,P
1636476355.7,286046999.0,Y
1636476375.6,286046998.2,P
1636476395.4,286046998.1,P
1636476415.2,286047000.9,P
1636476435.1,286047000.9,N
1636476436.0,286047000.9,N
1636476455.8,286047000.8,N
1636476475.6,286047000.5,N
1636476495.5,286046999.9,N
1636476515.3,286047000.2,N
1636476535.1,286047000.1,N
1636476555.9,286047002.3,N
1636476575.7,286046999.7,N
1636476595.5,286047000.2,N
1636476615.4,286047000.2,N
1636476635.2,286047000.3,N
1636476655.0,286046998.2,N
1636476656.0,286046998.2,N
1636476675.8,286047001.1,N
1636476695.6,286046998.7,N
1636476715.5,286046999.3,N
1636476735.3,286046999.1,N
1636476755.1,286046996.5,Y
1636476775.9,286046996.7,P
1636476795.7,286046997.8,N
1636476815.5,286046997.5,N
1636476835.4,286046998.0,N
1636476855.2,286046995.2,Y
1636476875.1,286046999.2,P
1636476876.0,286046999.2,N
1636476895.8,286046996.5,P
1636476915.6,286046996.7,N
1636476935.5,286046996.6,N
1636476955.3,286046997.0,N
1636476975.1,286046997.1,N
1636476995.9,286046997.2,N
1636477015.7,286046997.8,N
1636477035.6,286046994.9,Y
1636477055.4,286046998.1,P
1636477075.2,286047000.9,P
1636477095.1,286047001.1,N
1636477096.0,286047001.1,N
1636477115.8,286047001.1,N
1636477135.6,286047001.0,N
1636477155.5,286046998.5,N
1636477175.3,286046998.9,N
1636477195.1,286046999.2,N
